WQ5C-13 Weather Reports


time (UTC)temp
C
wind
direction
speed
KPH
gust
KPH
rain 1hr
cm
rain 24hr
cm
rain mn
cm
humidity
%
barometer
mb
20260506235015 18 9 1.6 16.1 0.00 0.05 0.05 78 1011.1
20260506234015 19 360 1.6 17.7 0.00 0.05 0.05 76 1011.1
20260506233015 20 9 1.6 16.1 0.00 0.05 0.05 76 1011.1
20260506232015 20 360 1.6 16.1 0.00 0.05 0.05 74 1010.9
20260506231015 20 10 4.8 22.5 0.00 0.05 0.05 73 1010.8
20260506230015 21 14 4.8 17.7 0.00 0.05 0.05 73 1010.7
20260506225015 21 360 3.2 17.7 0.00 0.05 0.05 73 1010.7
20260506224015 21 356 1.6 19.3 0.00 0.05 0.05 72 1010.4
20260506223015 22 10 3.2 25.7 0.00 0.05 0.05 72 1010.3
20260506222016 22 8 1.6 16.1 0.00 0.05 0.05 72 1010.2
20260506221036 22 8 3.2 16.1 0.00 0.05 0.05 71 1010.1
20260506220035 23 347 1.6 16.1 0.00 0.05 0.05 71 1010.3
20260506215015 23 5 1.6 16.1 0.00 0.05 0.05 70 1010.0
20260506214015 24 360 1.6 14.5 0.00 0.05 0.05 70 1010.0
20260506213015 24 0 3.2 16.1 0.00 0.05 0.05 69 1010.0
20260506212015 25 3 4.8 16.1 0.00 0.05 0.05 70 1009.9
20260506211015 24 360 0.0 14.5 0.00 0.05 0.05 73 1009.9
20260506210015 24 358 3.2 16.1 0.00 0.05 0.05 73 1010.1
20260506205016 25 30 1.6 14.5 0.00 0.05 0.05 73 1010.0
20260506204015 25 360 1.6 12.9 0.00 0.05 0.05 73 1010.0
20260506203015 26 20 1.6 12.9 0.00 0.05 0.05 71 1010.1
20260506202015 26 360 1.6 11.3 0.00 0.05 0.05 71 1010.1
20260506201015 26 102 6.4 12.9 0.00 0.05 0.05 70 1010.2
20260506200016 26 67 1.6 14.5 0.00 0.05 0.05 69 1010.1
20260506195015 26 7 1.6 11.3 0.00 0.05 0.05 71 1010.1
20260506194015 26 360 0.0 0.0 0.00 0.05 0.05 71 1010.0
20260506193015 26 360 0.0 11.3 0.00 0.05 0.05 72 1010.1
20260506192035 26 360 0.0 0.0 0.00 0.05 0.05 71 1010.4
20260506191015 26 0 0.0 1.6 0.00 0.05 0.05 71 1010.4
20260506190015 26 11 1.6 16.1 0.00 0.05 0.05 73 1010.4
20260506185016 25 360 0.0 14.5 0.03 0.05 0.05 74 1010.6
20260506184035 25 360 0.0 1.6 0.03 0.05 0.05 76 1010.6
20260506183016 25 23 1.6 14.5 0.03 0.05 0.05 76 1010.8
20260506182015 25 12 0.0 6.4 0.03 0.05 0.05 76 1010.6
20260506181015 25 75 1.6 11.3 0.03 0.05 0.05 78 1010.7
20260506180015 25 0.0 0.0 0.03 0.05 0.05 76 1010.9
20260506175015 25 0.0 0.0 0.00 0.03 0.03 79 1010.9
20260506174016 25 0.0 0.0 0.00 0.03 0.03 78 1011.1
20260506173015 25 75 1.6 14.5 0.00 0.03 0.03 78 1011.1
20260506172035 25 3 1.6 16.1 0.00 0.03 0.03 77 1011.2
20260506171015 25 23 1.6 12.9 0.00 0.03 0.03 80 1011.2
20260506170016 24 76 1.6 14.5 0.00 0.03 0.03 86 1011.2
20260506165015 23 12 3.2 11.3 0.00 0.03 0.03 89 1011.3
20260506164015 23 12 4.8 14.5 0.00 0.03 0.03 91 1011.4
20260506163035 23 10 4.8 11.3 0.00 0.03 0.03 92 1011.5
20260506162035 23 11 4.8 11.3 0.00 0.03 0.03 93 1011.6
20260506161015 22 10 3.2 9.7 0.00 0.03 0.03 94 1011.6
20260506160015 22 10 4.8 9.7 0.00 0.03 0.03 94 1011.5
20260506155015 22 10 3.2 6.4 0.03 0.03 0.03 94 1011.3
20260506154016 22 11 1.6 4.8 0.03 0.03 0.03 94 1011.1
20260506153015 22 12 1.6 4.8 0.03 0.03 0.03 94 1010.8
20260506152016 22 13 0.0 3.2 0.03 0.03 0.03 94 1010.5
20260506151015 22 11 0.0 3.2 0.03 0.03 0.03 93 1010.6
20260506150035 22 11 1.6 4.8 0.03 0.03 0.03 93 1010.4
20260506145035 22 11 1.6 6.4 0.00 0.00 0.00 92 1010.4
20260506144015 22 0.0 0.0 0.00 0.00 0.00 92 1010.4
20260506143015 22 10 1.6 6.4 0.00 0.00 0.00 92 1010.4
20260506142015 22 11 1.6 6.4 0.00 0.00 0.00 92 1009.9
20260506141035 22 11 1.6 9.7 0.00 0.00 0.00 92 1009.7
20260506140015 22 9 4.8 11.3 0.00 0.00 0.00 92 1009.5
20260506135036 22 10 4.8 9.7 0.00 0.00 0.00 92 1009.3
20260506134056 22 10 6.4 11.3 0.00 0.00 0.00 92 1009.2
20260506133015 22 10 6.4 11.3 0.00 0.00 0.00 92 1009.1
20260506132015 22 10 6.4 12.9 0.00 0.00 0.00 92 1009.1
20260506131015 22 10 3.2 11.3 0.00 0.00 0.00 92 1009.1
20260506130015 22 10 4.8 9.7 0.00 0.00 0.00 92 1009.0
20260506125015 22 10 3.2 8.0 0.00 0.00 0.00 92 1009.0
20260506124015 22 9 3.2 8.0 0.00 0.00 0.00 92 1009.1
20260506123015 22 9 0.0 6.4 0.00 0.00 0.00 92 1009.1
20260506122015 22 12 0.0 3.2 0.00 0.00 0.00 92 1008.9
20260506121015 22 9 1.6 8.0 0.00 0.00 0.00 92 1008.8
20260506120015 22 9 3.2 8.0 0.00 0.00 0.00 92 1008.8
20260506115015 22 8 3.2 8.0 0.00 0.00 0.00 92 1008.7
20260506114015 22 8 3.2 9.7 0.00 0.00 0.00 92 1008.7
20260506113015 22 8 1.6 8.0 0.00 0.00 0.00 91 1008.6
20260506112015 22 8 1.6 6.4 0.00 0.00 0.00 91 1008.7
20260506111015 22 8 1.6 6.4 0.00 0.00 0.00 91 1008.7
20260506110015 22 8 1.6 6.4 0.00 0.00 0.00 91 1008.5
20260506105015 22 8 3.2 9.7 0.00 0.00 0.00 91 1008.6
20260506104015 22 8 1.6 4.8 0.00 0.00 0.00 91 1008.6
20260506103015 22 360 0.0 11.3 0.00 0.00 0.00 90 1008.6
20260506102016 22 360 0.0 12.9 0.00 0.00 0.00 90 1008.6
20260506101015 22 269 1.6 8.0 0.00 0.00 0.00 90 1008.5
20260506100015 22 358 1.6 14.5 0.00 0.00 0.00 90 1008.4
20260506095015 22 360 1.6 12.9 0.00 0.00 0.00 90 1008.4
20260506094015 22 357 1.6 14.5 0.00 0.00 0.00 89 1008.3
20260506093015 22 360 0.0 6.4 0.00 0.00 0.00 89 1008.2
20260506092015 22 358 1.6 14.5 0.00 0.00 0.00 89 1008.0
20260506091016 22 360 1.6 12.9 0.00 0.00 0.00 89 1008.1
20260506090056 22 4 1.6 12.9 0.00 0.00 0.00 88 1008.2
20260506085015 22 360 1.6 11.3 0.00 0.00 0.00 88 1008.3
20260506084015 22 7 1.6 14.5 0.00 0.00 0.00 88 1008.3
20260506083015 22 8 1.6 12.9 0.00 0.00 0.00 88 1008.3
20260506082036 22 360 0.0 12.9 0.00 0.00 0.00 88 1008.2
20260506081015 22 360 0.0 6.4 0.00 0.00 0.00 88 1008.2
20260506073015 22 360 0.0 3.2 0.00 0.00 0.00 87 1008.5
20260506072015 22 360 0.0 8.0 0.00 0.00 0.00 87 1008.6
20260506071016 22 7 0.0 11.3 0.00 0.00 0.00 88 1008.7
20260506062016 23 360 0.0 3.2 0.00 0.00 0.00 87 1009.1
20260506061015 23 360 0.0 3.2 0.00 0.00 0.00 87 1009.0
20260506051035 23 360 0.0 4.8 0.00 0.00 0.00 86 1008.8
20260506045015 23 360 0.0 14.5 0.00 0.00 0.00 85 1008.9
20260506044015 23 74 1.6 11.3 0.00 0.00 0.00 85 1009.0
20260506043015 23 360 0.0 12.9 0.00 0.00 0.00 85 1008.8
20260506042015 23 360 0.0 3.2 0.00 0.00 0.00 85 1008.9
20260506041015 23 360 0.0 11.3 0.00 0.00 0.00 85 1008.7
20260506040015 23 360 0.0 9.7 0.00 0.00 0.00 85 1008.6
20260506035016 23 360 0.0 11.3 0.00 0.00 0.00 84 1008.5
20260506034015 23 360 1.6 14.5 0.00 0.00 0.00 84 1008.3
20260506033015 23 360 0.0 14.5 0.00 0.00 0.00 83 1008.1
20260506032015 23 360 0.0 0.0 0.00 0.00 0.00 83 1008.1
20260506031015 23 360 0.0 0.0 0.00 0.00 0.00 82 1007.9
20260506030015 24 360 0.0 1.6 0.00 0.00 0.00 81 1007.8
20260506025015 24 0.0 0.0 0.00 0.00 0.00 81 1007.6
20260506024015 24 360 0.0 6.4 0.00 0.00 0.00 80 1007.4
20260506023015 25 360 0.0 1.6 0.00 0.00 0.00 79 1007.2
20260506022015 25 360 0.0 14.5 0.00 0.00 0.00 78 1007.2
20260506021015 25 0.0 0.0 0.00 0.00 0.00 77 1007.1
20260506020015 25 360 0.0 9.7 0.00 0.00 0.00 76 1006.9
20260506015015 25 360 0.0 3.2 0.00 0.00 0.00 75 1006.8
20260506014015 25 0.0 0.0 0.00 0.00 0.00 74 1006.7
20260506013015 25 24 0.0 11.3 0.00 0.00 0.00 73 1006.7
20260506012015 26 77 1.6 6.4 0.00 0.00 0.00 73 1006.6
20260506011015 26 80 4.8 11.3 0.00 0.00 0.00 73 1006.5
20260506010015 26 85 3.2 6.4 0.00 0.00 0.00 72 1006.4
20260506005055 26 83 1.6 6.4 0.00 0.00 0.00 71 1006.4
20260506004015 26 76 1.6 9.7 0.00 0.00 0.00 71 1006.4
20260506003015 26 79 4.8 8.0 0.00 0.00 0.00 70 1006.2
20260506002035 26 78 3.2 9.7 0.00 0.00 0.00 69 1006.2
20260506001015 26 75 3.2 9.7 0.00 0.00 0.00 69 1006.1
20260506000035 26 360 0.0 0.0 0.00 0.00 0.00 69 1006.0